Temp
-18 -18 -17 -17 -18 -18 -18 -18 -18 -18 -18 -18 -18 -17 -18 -17 -17 -19 -19 -19 -20 -20 -20 -20 -20 -20 -20 -20 -20 -20 -21 -21 -20 -21 -21 -21 -21 -21 -22 -23 -22 -23 -21 -18
-18 -18 -18 -18 -18 -19 -19 -19 -19 -18 -19 -18 -18 -19 -19 -19 -18 -19 -20 -21 -21 -21 -21 -21 -21 -21 -21 -21 -21 -21 -21 -22 -21 -21 -22 -21 -21 -22 -22 -23 -22 -22 -23 -19
-19 -19 -19 -19 -20 -20 -20 -20 -20 -19 -20 -20 -20 -20 -20 -20 -20 -20 -21 -22 -22 -22 -22 -22 -21 -21 -22 -22 -22 -22 -23 -22 -22 -23 -24 -23 -23 -23 -22 -23 -22 -22 -21 -22
-19 -19 -19 -20 -21 -21 -21 -21 -21 -21 -21 -21 -21 -22 -22 -22 -22 -22 -22 -23 -23 -24 -24 -23 -23 -23 -23 -23 -23 -23 -23 -23 -23 -22 -23 -23 -23 -22 -23 -23 -23 -24 -21 -23
-21 -22 -22 -22 -22 -22 -23 -23 -23 -23 -23 -23 -23 -24 -23 -23 -24 -24 -24 -24 -24 -24 -24 -24 -24 -24 -24 -23 -24 -23 -23 -23 -23 -23 -23 -23 -23 -23 -23 -23 -23 -24 -23 -21
-24 -24 -24 -25 -25 -24 -24 -25 -25 -25 -25 -25 -25 -25 -25 -25 -25 -25 -25 -25 -25 -25 -25 -25 -25 -25 -24 -24 -24 -24 -24 -24 -24 -23 -25 -25 -24 -23 -24 -24 -24 -24 -23 -22
-26 -26 -27 -27 -27 -27 -27 -27 -27 -27 -27 -27 -26 -26 -26 -26 -26 -26 -26 -26 -26 -25 -25 -25 -25 -25 -25 -25 -24 -24 -25 -25 -25 -25 -25 -25 -24 -24 -24 -24 -24 -24 -23 -23
-28 -28 -28 -28 -29 -29 -28 -28 -28 -28 -28 -28 -27 -27 -27 -27 -26 -27 -26 -26 -26 -26 -26 -26 -26 -25 -25 -25 -25 -25 -25 -25 -25 -25 -25 -25 -25 -24 -24 -25 -25 -25 -24 -24
-30 -30 -30 -30 -30 -30 -30 -30 -30 -30 -29 -28 -28 -28 -28 -27 -27 -27 -27 -27 -26 -26 -26 -26 -26 -26 -25 -25 -25 -25 -25 -25 -26 -25 -25 -25 -25 -25 -25 -25 -25 -25 -24 -23
-31 -31 -31 -31 -31 -31 -31 -31 -31 -31 -30 -30 -30 -30 -29 -29 -28 -28 -27 -27 -27 -26 -26 -26 -26 -26 -25 -26 -25 -25 -25 -26 -26 -26 -26 -25 -25 -25 -25 -25 -25 -25 -25 -24
-32 -32 -32 -32 -31 -31 -31 -31 -31 -31 -31 -30 -31 -30 -30 -30 -29 -28 -27 -27 -27 -27 -26 -26 -26 -26 -26 -26 -26 -26 -26 -26 -26 -26 -26 -25 -25 -25 -25 -25 -25 -25 -25 -24
-33 -33 -33 -33 -33 -32 -32 -31 -31 -31 -31 -30 -31 -31 -30 -30 -30 -29 -28 -27 -27 -27 -27 -27 -26 -26 -26 -26 -26 -26 -26 -26 -26 -26 -26 -26 -26 -26 -25 -25 -25 -25 -24 -24
-33 -33 -33 -33 -33 -33 -33 -33 -32 -32 -31 -30 -30 -31 -31 -30 -30 -29 -28 -27 -27 -27 -27 -27 -26 -26 -26 -26 -26 -27 -27 -27 -27 -27 -26 -26 -26 -26 -26 -25 -24 -24 -24 -24
-33 -33 -33 -34 -34 -34 -34 -34 -34 -32 -31 -29 -31 -31 -31 -30 -30 -29 -28 -28 -27 -27 -27 -27 -27 -26 -26 -26 -26 -26 -27 -27 -27 -26 -27 -26 -26 -26 -25 -25 -25 -24 -24 -24
-34 -34 -34 -34 -34 -34 -34 -34 -34 -32 -31 -29 -31 -31 -31 -30 -30 -29 -28 -27 -27 -27 -27 -27 -27 -27 -26 -26 -25 -26 -27 -27 -27 -27 -27 -26 -27 -26 -26 -25 -25 -24 -24 -24
-34 -34 -34 -35 -35 -35 -35 -35 -34 -32 -31 -30 -31 -31 -30 -30 -29 -28 -27 -27 -27 -27 -27 -27 -26 -27 -27 -26 -25 -26 -27 -27 -27 -27 -27 -26 -26 -26 -26 -25 -25 -24 -24 -24
-34 -34 -35 -35 -35 -35 -35 -35 -34 -32 -31 -30 -31 -31 -30 -29 -28 -27 -27 -27 -27 -27 -27 -27 -27 -27 -26 -26 -26 -27 -26 -26 -26 -26 -26 -26 -26 -25 -25 -25 -25 -24 -24 -24
-34 -35 -35 -35 -35 -35 -34 -34 -33 -32 -31 -31 -30 -30 -29 -29 -28 -27 -27 -27 -27 -27 -27 -27 -27 -26 -26 -26 -26 -26 -26 -25 -25 -26 -26 -26 -26 -26 -25 -25 -25 -24 -24 -24
-35 -35 -35 -35 -35 -34 -34 -33 -33 -31 -31 -31 -30 -29 -29 -28 -28 -27 -27 -27 -27 -27 -26 -26 -26 -26 -26 -26 -26 -26 -26 -26 -26 -26 -25 -26 -26 -25 -25 -25 -25 -25 -25 -24
-34 -34 -34 -34 -33 -32 -31 -31 -30 -30 -30 -30 -29 -29 -29 -28 -28 -28 -27 -27 -27 -26 -27 -26 -26 -26 -26 -27 -27 -26 -26 -26 -26 -26 -26 -26 -26 -25 -25 -24 -24 -24 -24 -24
-32 -32 -32 -31 -31 -31 -31 -31 -30 -30 -29 -29 -29 -28 -28 -28 -27 -27 -27 -27 -26 -26 -27 -26 -26 -27 -27 -27 -27 -27 -26 -26 -26 -26 -26 -26 -25 -25 -25 -25 -25 -25 -25 -25
-31 -31 -30 -30 -30 -30 -30 -30 -30 -29 -29 -29 -28 -28 -28 -28 -27 -27 -27 -27 -27 -27 -27 -27 -27 -27 -27 -26 -27 -26 -26 -26 -26 -26 -26 -25 -25 -25 -25 -25 -25 -25 -25 -25
-30 -30 -30 -30 -30 -30 -30 -30 -30 -29 -29 -28 -28 -28 -28 -27 -27 -27 -27 -27 -27 -27 -27 -27 -27 -27 -27 -26 -25 -26 -26 -26 -26 -26 -26 -25 -25 -25 -25 -25 -25 -25 -25 -25
-30 -30 -30 -30 -29 -29 -29 -29 -29 -29 -28 -28 -28 -27 -27 -27 -27 -27 -28 -28 -28 -28 -27 -27 -27 -27 -27 -26 -26 -26 -26 -26 -26 -26 -26 -25 -25 -25 -25 -25 -25 -25 -25 -25
-30 -30 -30 -29 -29 -29 -29 -29 -28 -28 -28 -28 -28 -27 -27 -27 -27 -28 -28 -28 -28 -28 -28 -28 -27 -27 -27 -26 -26 -26 -26 -26 -26 -26 -26 -26 -26 -25 -25 -25 -25 -25 -25 -26
-29 -29 -29 -29 -29 -29 -29 -28 -28 -28 -28 -28 -28 -28 -28 -28 -28 -28 -28 -28 -28 -28 -28 -28 -28 -27 -27 -27 -26 -26 -26 -26 -26 -26 -26 -26 -26 -26 -26 -25 -25 -25 -26 -26
-29 -29 -29 -28 -28 -28 -28 -28 -28 -28 -28 -28 -28 -28 -28 -28 -28 -28 -28 -28 -28 -28 -28 -28 -28 -27 -27 -27 -27 -26 -26 -26 -26 -26 -26 -26 -26 -26 -26 -26 -26 -26 -26 -27
Height
5632 5633 5632 5633 5632 5631 5629 5630 5631 5638 5636 5635 5632 5635 5637 5639 5638 5633 5629 5629 5628 5629 5630 5630 5631 5633 5631 5632 5631 5631 5630 5628 5630 5631 5629 5630 5631 5631 5630 5629 5631 5629 5626 5632
5612 5612 5612 5612 5611 5610 5608 5608 5611 5616 5613 5613 5615 5615 5615 5616 5617 5614 5611 5608 5610 5611 5613 5609 5615 5617 5617 5614 5615 5615 5616 5614 5615 5617 5616 5615 5616 5618 5619 5617 5617 5617 5616 5620
5594 5592 5591 5592 5590 5589 5587 5588 5589 5593 5590 5594 5596 5595 5597 5596 5599 5595 5592 5593 5592 5592 5595 5594 5598 5599 5599 5600 5601 5600 5599 5600 5601 5604 5609 5605 5604 5604 5605 5605 5604 5605 5606 5606
5573 5571 5570 5570 5570 5568 5566 5566 5568 5569 5568 5572 5576 5576 5576 5579 5577 5579 5576 5576 5579 5577 5575 5578 5581 5584 5586 5586 5588 5587 5585 5585 5587 5588 5589 5589 5591 5592 5592 5591 5593 5589 5595 5592
5547 5546 5544 5542 5545 5544 5545 5546 5548 5547 5548 5550 5554 5557 5557 5560 5564 5560 5563 5563 5566 5564 5565 5567 5570 5572 5574 5576 5576 5575 5575 5576 5574 5577 5576 5575 5576 5580 5580 5581 5581 5578 5578 5580
5525 5525 5525 5524 5523 5523 5523 5521 5525 5522 5527 5532 5535 5542 5544 5546 5547 5548 5549 5552 5553 5553 5556 5556 5559 5561 5563 5565 5564 5565 5565 5564 5564 5565 5566 5564 5565 5570 5569 5569 5568 5566 5567 5572
5505 5505 5504 5505 5504 5506 5506 5508 5506 5506 5512 5512 5522 5525 5528 5532 5534 5535 5537 5540 5541 5545 5545 5548 5548 5550 5552 5553 5555 5554 5555 5555 5555 5555 5556 5553 5557 5557 5558 5558 5555 5555 5556 5557
5484 5485 5486 5486 5486 5487 5492 5493 5492 5492 5499 5501 5509 5513 5516 5519 5524 5524 5528 5531 5533 5534 5537 5538 5538 5541 5542 5545 5546 5545 5546 5547 5546 5546 5548 5547 5548 5547 5546 5544 5546 5545 5546 5548
5467 5467 5469 5470 5470 5471 5475 5477 5476 5478 5482 5491 5493 5497 5502 5506 5510 5514 5519 5520 5524 5526 5527 5528 5530 5532 5534 5536 5537 5538 5538 5538 5539 5539 5538 5538 5538 5540 5539 5536 5537 5538 5540 5540
5451 5452 5454 5455 5456 5457 5461 5466 5465 5466 5472 5480 5480 5484 5488 5492 5496 5502 5508 5511 5514 5516 5519 5521 5524 5525 5527 5528 5529 5530 5530 5530 5531 5531 5530 5533 5531 5532 5530 5530 5533 5530 5531 5532
5435 5436 5438 5440 5441 5443 5447 5453 5453 5457 5462 5466 5470 5473 5477 5481 5485 5491 5497 5502 5507 5510 5512 5513 5516 5518 5519 5521 5521 5521 5522 5523 5523 5523 5523 5524 5524 5525 5523 5522 5522 5522 5523 5525
5422 5422 5424 5425 5426 5427 5431 5437 5441 5446 5449 5457 5461 5465 5470 5473 5476 5480 5485 5493 5498 5503 5505 5507 5509 5511 5513 5514 5514 5513 5515 5515 5515 5515 5516 5514 5515 5516 5514 5513 5515 5516 5518 5520
5411 5412 5414 5415 5416 5417 5419 5421 5426 5434 5442 5446 5452 5460 5462 5463 5468 5471 5479 5486 5490 5494 5499 5501 5503 5505 5506 5507 5507 5506 5505 5504 5504 5504 5506 5505 5504 5506 5507 5508 5509 5511 5512 5514
5400 5402 5404 5406 5407 5407 5409 5412 5414 5423 5434 5437 5448 5451 5454 5457 5461 5465 5471 5478 5483 5486 5491 5494 5497 5500 5500 5501 5501 5499 5499 5497 5496 5495 5497 5497 5498 5499 5500 5502 5504 5505 5506 5506
5391 5393 5396 5398 5400 5402 5404 5406 5408 5415 5426 5432 5443 5445 5449 5452 5456 5460 5467 5473 5478 5483 5486 5489 5493 5494 5494 5494 5494 5493 5492 5491 5488 5489 5490 5490 5494 5494 5496 5498 5499 5501 5502 5503
5385 5387 5390 5392 5395 5397 5399 5401 5404 5410 5420 5428 5437 5442 5446 5450 5454 5459 5466 5470 5475 5479 5481 5485 5487 5488 5488 5488 5488 5487 5485 5482 5480 5482 5482 5482 5487 5488 5490 5492 5494 5496 5498 5499
5380 5382 5386 5389 5392 5395 5397 5400 5401 5406 5417 5426 5434 5439 5443 5448 5452 5457 5464 5468 5472 5476 5479 5481 5482 5481 5480 5481 5481 5479 5475 5473 5471 5472 5474 5478 5480 5482 5483 5486 5488 5491 5493 5493
5377 5381 5385 5388 5390 5392 5395 5399 5401 5408 5418 5426 5431 5437 5442 5446 5450 5454 5460 5465 5469 5473 5475 5476 5476 5475 5473 5473 5472 5469 5467 5464 5463 5464 5467 5473 5474 5476 5477 5479 5482 5485 5487 5488
5377 5381 5384 5386 5388 5391 5396 5399 5406 5413 5420 5424 5430 5435 5442 5446 5451 5455 5459 5463 5467 5470 5471 5470 5470 5469 5466 5462 5460 5458 5458 5455 5457 5458 5466 5469 5469 5469 5470 5472 5475 5477 5479 5482
5379 5382 5385 5388 5391 5396 5401 5407 5412 5417 5422 5427 5432 5436 5442 5447 5450 5454 5459 5462 5464 5466 5467 5466 5464 5462 5458 5454 5452 5450 5449 5450 5452 5457 5461 5461 5464 5464 5465 5467 5469 5471 5473 5474
5384 5389 5393 5398 5402 5407 5411 5414 5418 5422 5426 5430 5435 5440 5443 5447 5451 5454 5457 5459 5461 5461 5461 5459 5457 5456 5454 5450 5448 5446 5445 5447 5450 5453 5455 5457 5458 5459 5460 5461 5463 5465 5466 5467
5397 5400 5404 5408 5412 5415 5417 5420 5424 5426 5430 5434 5438 5441 5444 5448 5450 5453 5455 5456 5456 5455 5454 5453 5452 5451 5449 5447 5444 5444 5445 5446 5448 5449 5451 5452 5453 5455 5456 5457 5458 5459 5459 5460
5409 5411 5413 5417 5421 5422 5424 5426 5428 5430 5432 5436 5439 5443 5445 5447 5449 5451 5451 5451 5450 5449 5448 5448 5448 5447 5446 5444 5441 5444 5445 5446 5446 5447 5448 5448 5450 5451 5452 5452 5453 5452 5452 5453
5419 5420 5422 5423 5426 5428 5429 5431 5432 5434 5436 5438 5440 5443 5445 5446 5446 5447 5448 5447 5446 5444 5442 5442 5443 5444 5443 5441 5441 5443 5443 5444 5445 5445 5445 5445 5446 5447 5447 5447 5447 5446 5445 5446
5425 5426 5427 5429 5430 5431 5432 5433 5434 5436 5437 5439 5441 5442 5444 5444 5444 5444 5444 5443 5443 5441 5440 5439 5438 5440 5440 5440 5440 5441 5441 5441 5441 5441 5441 5442 5442 5442 5442 5441 5441 5440 5439 5439
5429 5429 5430 5430 5431 5431 5432 5434 5435 5436 5437 5438 5439 5440 5440 5440 5439 5440 5439 5440 5439 5438 5437 5435 5436 5437 5437 5437 5437 5437 5437 5437 5438 5437 5437 5437 5436 5436 5436 5436 5435 5434 5433 5433
5430 5430 5430 5430 5431 5431 5432 5433 5433 5434 5434 5435 5434 5435 5434 5434 5434 5436 5436 5436 5435 5435 5434 5433 5432 5432 5432 5432 5432 5433 5433 5433 5433 5432 5431 5431 5430 5430 5429 5429 5428 5428 5427 5427
Wind_Speed
66 70 72 73 76 77 78 77 74 70 67 69 71 69 65 65 65 66 67 66 65 65 62 62 61 59 56 54 53 52 51 51 50 46 46 44 42 41 39 33 34 35 43 46
77 79 80 81 82 76 71 73 74 76 72 73 71 70 70 70 69 68 67 66 64 62 61 63 60 57 55 55 53 52 51 51 49 46 46 45 45 43 42 40 41 44 43 46
82 81 81 80 77 75 75 75 75 73 72 71 70 72 71 71 68 67 65 63 61 59 58 57 57 56 54 53 51 50 49 51 50 44 33 36 38 45 44 43 45 44 45 43
84 81 77 79 77 75 75 75 76 73 74 73 71 70 69 64 63 61 59 58 54 49 49 49 48 46 45 45 45 47 48 48 48 50 49 50 49 49 48 47 47 45 44 39
75 71 68 71 70 69 72 71 71 71 72 69 67 63 61 59 54 55 53 49 46 45 45 41 38 38 38 39 41 43 46 47 48 48 50 51 52 50 49 47 45 44 42 40
65 62 61 61 63 65 67 65 66 67 65 62 59 57 56 53 53 47 46 42 43 41 39 36 35 34 34 35 38 40 42 42 41 43 40 44 49 45 44 42 41 43 41 33
63 63 63 63 64 63 62 61 60 60 57 55 53 51 52 50 46 44 44 45 40 39 41 37 33 31 29 31 34 36 38 35 34 28 28 36 38 35 31 32 34 31 33 31
65 64 62 61 61 61 60 60 59 58 55 51 50 48 49 47 43 44 45 37 34 33 30 30 31 28 30 28 28 30 30 28 28 27 32 31 28 28 30 33 29 27 27 26
52 52 52 50 50 50 48 47 48 49 48 48 46 45 42 42 42 42 46 45 42 30 28 27 31 27 29 29 26 21 21 20 22 24 31 33 33 28 25 27 26 22 20 23
49 48 48 48 47 47 47 45 45 45 43 37 37 35 34 33 32 28 29 27 28 29 39 37 30 25 26 26 28 28 21 25 24 27 31 31 33 29 29 26 22 21 23 23
48 49 50 50 49 48 47 43 44 43 40 36 33 32 33 34 34 35 29 26 19 26 31 34 36 30 28 27 26 29 25 27 28 27 28 31 33 27 27 23 22 20 19 21
40 36 32 30 32 38 47 49 47 41 39 35 32 29 27 29 29 36 38 24 20 17 22 23 24 27 26 23 24 27 32 31 32 34 32 32 32 26 25 20 15 17 17 18
36 33 32 29 27 31 34 37 48 44 37 33 30 25 26 29 28 34 35 22 22 17 21 17 18 21 20 17 17 22 30 35 38 34 31 27 27 23 22 14 18 17 13 20
34 33 29 26 25 21 22 25 32 46 38 31 21 22 25 27 26 33 44 27 22 18 20 18 18 17 14 12 13 17 23 24 24 24 21 22 21 21 24 18 12 18 16 13
30 25 24 22 18 18 18 18 24 39 40 33 20 21 22 23 23 22 36 23 18 22 18 16 16 14 14 14 14 17 18 21 27 23 22 23 21 22 23 26 17 18 14 10
16 19 20 17 17 18 18 16 22 32 40 34 23 15 17 17 18 23 28 23 18 18 16 17 17 17 20 16 16 20 15 23 29 27 25 28 24 25 24 25 23 18 14 14
12 15 16 15 15 15 18 15 15 30 36 30 22 19 17 13 14 23 21 20 23 20 20 22 21 22 22 21 23 20 23 27 32 34 30 26 26 24 26 27 24 20 18 21
11 15 14 10 10 12 10 12 8 28 28 24 21 20 19 15 16 23 16 18 19 17 19 20 21 22 27 29 29 31 29 30 30 36 33 23 20 18 21 24 22 23 25 23
15 14 10 9 11 13 27 28 18 24 26 22 19 18 8 13 22 20 25 21 16 16 17 19 23 27 31 35 35 30 29 33 30 32 23 16 18 21 22 22 24 24 25 26
15 12 9 18 28 29 26 24 21 19 15 15 16 14 11 14 18 19 19 16 14 14 17 22 24 27 25 28 22 23 23 24 23 20 19 18 15 17 19 19 23 24 24 23
33 39 38 35 32 27 21 15 12 12 14 15 15 16 12 13 17 16 13 10 13 17 19 23 26 14 16 15 14 10 10 12 12 13 14 15 17 18 18 15 16 17 20 23
44 37 30 25 21 16 12 10 6 7 15 16 15 12 13 14 12 10 10 13 17 21 22 21 13 14 6 10 3 4 8 11 14 15 15 16 16 14 15 17 19 22 24 22
30 24 25 20 15 15 10 4 9 8 12 13 13 13 13 9 9 9 14 20 23 24 21 15 15 12 5 2 7 6 5 8 10 11 11 12 14 16 16 17 18 20 19 20
20 19 17 17 9 9 10 6 7 9 10 12 13 11 8 8 12 16 19 19 16 14 14 13 16 13 11 3 4 9 8 9 10 10 10 11 12 13 14 16 17 17 18 21
9 9 10 8 5 7 7 5 8 7 7 8 8 10 11 14 18 17 16 12 12 11 8 11 17 15 13 10 11 13 13 11 10 10 11 13 14 15 17 18 17 17 16 17
7 5 4 2 3 2 3 6 7 9 11 13 15 17 18 20 20 16 12 10 10 10 9 9 14 15 17 16 15 12 10 10 11 12 13 15 16 17 18 19 20 18 17 16
7 7 7 8 8 9 10 11 14 16 19 21 21 21 21 18 17 13 12 9 10 13 13 12 11 14 16 19 19 17 15 15 15 15 15 17 18 19 20 21 20 19 18 17
Wind_Direction
275 274 273 272 270 271 272 274 278 278 278 278 281 280 277 277 275 273 272 271 271 270 270 269 270 270 270 270 268 267 268 267 266 266 264 264 261 260 262 261 265 268 270 271
269 270 269 269 272 275 278 278 281 282 278 275 275 271 271 269 269 270 271 272 271 270 268 267 268 266 265 264 263 263 263 263 265 264 266 263 264 264 261 260 265 270 266 280
273 272 273 277 279 278 278 277 274 273 270 270 267 268 269 269 268 268 268 269 269 267 266 265 265 263 262 262 261 258 257 258 260 259 250 250 254 267 269 269 268 270 270 277
278 277 279 280 279 275 274 271 268 266 265 266 266 265 267 267 267 266 264 263 262 263 263 262 263 261 260 261 262 260 257 258 259 261 262 263 262 266 268 271 276 275 280 278
281 278 273 274 270 266 264 264 264 263 263 262 262 261 263 263 263 262 261 260 256 258 258 261 259 263 266 265 265 264 264 265 265 266 267 267 268 271 271 274 278 277 280 283
275 270 266 264 261 259 262 262 261 260 259 259 257 257 258 255 253 254 254 252 253 251 252 255 261 266 263 263 264 266 267 268 271 273 277 274 271 277 277 278 277 274 278 281
267 266 266 263 262 260 260 261 263 261 259 260 258 257 255 250 246 248 251 248 249 247 251 262 264 263 263 263 265 265 267 266 270 274 268 269 282 280 279 275 275 276 272 269
273 271 269 268 268 268 267 267 268 270 269 267 264 264 262 258 250 241 247 247 252 253 266 262 261 265 263 260 260 265 267 259 264 262 264 276 277 277 280 282 269 259 257 260
269 268 267 267 266 265 265 263 262 261 262 264 260 259 257 257 257 251 246 254 256 245 247 262 259 255 264 255 259 256 259 258 265 269 269 274 279 285 291 285 269 250 249 248
267 266 265 264 263 262 261 260 260 261 263 261 249 244 241 240 237 241 229 231 227 255 253 256 263 254 251 257 257 254 244 260 262 260 263 270 272 291 293 283 270 250 239 246
270 268 268 265 262 258 256 254 253 256 258 254 249 244 238 235 229 214 214 228 230 243 242 247 255 251 247 255 253 256 256 249 254 257 268 274 282 285 280 267 265 253 245 238
267 268 264 263 260 260 254 247 246 247 251 250 246 243 239 236 236 228 214 191 199 242 241 242 243 241 249 257 264 258 243 252 256 264 271 278 282 277 272 249 239 247 242 250
267 265 264 261 266 274 263 249 237 235 241 246 240 235 236 237 235 226 206 190 189 184 238 234 233 246 254 257 264 266 264 266 270 272 273 268 262 260 250 263 252 236 234 250
265 263 258 262 272 265 262 245 235 226 228 235 228 232 231 236 235 228 210 208 195 192 232 241 237 242 250 265 272 273 267 268 270 258 256 252 249 265 231 244 256 258 259 293
263 254 257 262 238 245 249 244 231 220 218 223 221 226 225 230 237 233 218 208 196 214 237 231 238 249 265 267 283 306 285 269 264 254 257 250 245 252 244 249 253 248 259 266
243 242 255 224 222 233 232 235 227 212 211 218 211 210 222 228 221 210 193 218 210 220 232 235 243 266 271 270 292 315 298 270 254 250 248 247 251 258 255 252 247 247 247 238
232 234 208 208 223 231 229 249 232 200 201 208 205 205 201 210 184 188 175 195 201 214 235 238 258 270 275 280 294 301 275 262 248 243 236 247 250 252 252 246 243 241 237 241
202 185 188 192 211 222 222 128 159 183 190 196 199 191 182 175 186 176 187 196 217 225 237 254 268 271 282 288 295 294 277 268 260 247 240 248 253 245 240 246 242 240 229 232
171 167 175 199 191 163 140 132 162 169 181 190 181 183 157 138 182 183 185 207 215 235 253 267 271 278 293 296 291 281 264 264 262 252 247 252 241 240 236 232 236 238 241 242
153 157 159 145 138 128 131 140 153 168 170 168 168 152 130 154 166 186 189 204 229 247 263 274 289 299 292 286 303 296 273 269 262 251 244 238 233 240 245 241 243 246 246 244
125 119 112 108 105 108 111 123 131 129 122 142 152 156 144 169 174 183 202 227 248 268 295 295 292 265 296 296 299 305 292 278 252 236 250 246 242 246 251 248 244 247 253 258
106 101 84 78 80 77 82 116 108 130 126 138 153 159 169 179 186 207 229 262 289 300 296 287 265 256 267 272 322 295 272 258 255 259 254 248 248 233 238 242 253 265 267 260
116 103 81 72 71 76 88 153 184 142 139 153 163 171 184 204 224 253 277 288 294 294 288 284 251 259 277 285 94 251 278 256 253 245 238 238 234 242 251 260 268 267 262 248
120 110 90 58 87 94 93 119 154 149 159 172 182 191 207 239 264 277 286 294 299 310 294 264 239 247 255 180 189 233 228 239 252 252 246 241 243 247 257 264 274 275 266 256
102 121 95 44 113 84 56 115 162 178 187 190 210 231 249 264 278 291 292 274 309 311 301 247 227 230 237 231 227 239 245 248 255 267 270 269 265 266 270 273 274 277 268 263
133 136 171 174 213 227 199 203 205 217 225 237 252 262 271 280 287 293 271 269 309 315 288 278 246 243 242 243 244 249 256 268 281 285 282 277 275 274 275 276 277 276 271 272
216 229 240 250 249 249 249 247 247 251 257 264 268 275 281 278 272 271 247 258 280 301 288 284 266 254 259 256 253 257 266 279 290 288 289 286 281 278 277 276 274 268 267 269